[[{"header":{"parameterUnit":"m.s-1","parameterCategory":1,"la1":30.2992,"la2":30.254,"lo1":-89.0895,"lo2":-89.0443,"dy":0.0025,"dx":0.0025,"nx":19,"ny":19,"refTime":"2026-03-08T03:00:00:Z","depth":0,"parameterNumber":2,"parameterNumberName":"U-component_of_WINDS"},"data":[0,0,0,-1.36,-1.3599,-1.3544,-1.3544,-1.3481,-1.348,0,0,0,0,0,0,0,0,0,0,0,-1.3621,-1.3621,-1.36,-1.3599,-1.3544,-1.3544,-1.3481,-1.348,0,0,0,0,0,0,0,0,0,0,0,-1.3621,-1.3621,-1.3621,-1.3599,-1.3544,-1.3544,-1.3481,-1.352,0,0,0,0,0,0,0,0,0,0,-1.3571,-1.3597,-1.3621,-1.3621,-1.3598,-1.3544,-1.3544,-1.3521,-1.3517,-1.3509,0,-1.3504,0,-1.3491,-1.3477,-1.3476,0,0,0,-1.3595,-1.36,-1.3581,-1.3621,-1.3598,-1.3544,-1.3568,-1.3519,-1.3514,-1.3503,-1.3503,-1.35,-1.349,-1.3476,-1.3476,-1.3442,-1.3443,0,0,-1.3598,-1.3614,-1.3584,-1.3578,-1.3588,-1.3569,-1.3566,-1.3516,-1.3516,-1.3502,-1.3498,-1.3489,-1.3476,-1.3475,-1.3442,-1.3442,0,0,0,-1.3609,-1.3617,-1.3598,-1.3581,-1.357,-1.3568,-1.3564,-1.3518,-1.3511,-1.3498,-1.3488,-1.3476,-1.3475,-1.3442,-1.3442,-1.346,0,0,0,-1.3611,-1.3623,-1.36,-1.3609,-1.3572,-1.3544,-1.3568,-1.3514,-1.3508,-1.3489,-1.3476,-1.3474,-1.3442,-1.3442,-1.3459,-1.3466,0,0,0,-1.3623,-1.3625,-1.3619,-1.361,-1.3587,-1.3544,-1.3534,-1.3513,-1.3503,-1.3476,-1.3474,-1.3442,-1.3442,-1.3459,-1.3465,-1.3461,0,0,0,-1.3641,-1.3635,-1.3619,-1.3609,-1.3588,-1.3556,-1.3534,-1.3509,-1.3489,-1.3475,-1.3442,-1.3442,-1.3459,-1.3464,-1.3461,-1.3461,-1.3463,0,0,-1.3643,-1.3636,-1.3629,-1.3613,-1.3588,-1.3563,-1.354,-1.3506,-1.3488,-1.3458,-1.3457,-1.346,-1.3465,-1.3461,-1.3467,-1.3469,0,0,0,-1.3635,-1.363,-1.362,-1.3601,-1.3575,-1.3552,-1.352,-1.3506,-1.348,-1.3477,-1.3457,-1.3459,-1.3456,-1.3456,-1.3457,-1.3453,-1.3443,-1.3443,-1.3443,-1.3662,-1.3639,-1.3625,-1.3595,-1.3577,-1.3543,-1.3526,-1.3502,-1.3485,-1.3481,-1.3472,-1.3479,-1.3478,-1.3479,-1.3475,-1.347,-1.347,-1.347,-1.347,-1.3662,-1.3651,-1.3627,-1.3605,-1.358,-1.3561,-1.3527,-1.3515,-1.3492,-1.3484,-1.348,-1.3472,-1.3482,-1.3477,-1.3472,-1.3471,-1.3471,-1.3471,-1.3471,-1.3677,-1.3667,-1.3652,-1.3621,-1.36,-1.357,-1.355,-1.3528,-1.3508,-1.3504,-1.3491,-1.3491,-1.3487,-1.35,-1.35,-1.35,-1.35,-1.35,-1.35,-1.3698,-1.368,-1.3665,-1.3636,-1.362,-1.3597,-1.3562,-1.3545,-1.3522,-1.3508,-1.3507,-1.349,-1.3487,-1.3487,-1.35,-1.35,-1.35,-1.35,-1.35,-1.3707,-1.3701,-1.3679,-1.3663,-1.3626,-1.3606,-1.3578,-1.3547,-1.353,-1.352,-1.3503,-1.3505,-1.3496,-1.3495,-1.3494,-1.3509,-1.3509,-1.3509,-1.3509,-1.3719,-1.3712,-1.3684,-1.366,-1.3634,-1.3607,-1.3581,-1.3553,-1.3522,-1.351,-1.3505,-1.3502,-1.3502,-1.3494,-1.3492,-1.3491,-1.3505,-1.3505,-1.3505,-1.3722,-1.3712,-1.3694,-1.3665,-1.3634,-1.3607,-1.3582,-1.3555,-1.3519,-1.3504,-1.35,-1.35,-1.3496,-1.3496,-1.3481,-1.348,-1.3478,0,0]},{"header":{"parameterUnit":"m.s-1","parameterCategory":1,"la1":30.2992,"la2":30.254,"lo1":-89.0895,"lo2":-89.0443,"dy":0.0025,"dx":0.0025,"nx":19,"ny":19,"refTime":"2026-03-08T03:00:00:Z","depth":0,"parameterNumber":3,"parameterNumberName":"V-component_of_WINDS"},"data":[0,0,0,3.4632,3.4634,3.4726,3.4727,3.4838,3.4839,0,0,0,0,0,0,0,0,0,0,0,3.4601,3.4601,3.4631,3.4634,3.4726,3.4727,3.4838,3.4839,0,0,0,0,0,0,0,0,0,0,0,3.46,3.4601,3.4602,3.4634,3.4726,3.4727,3.4838,3.477,0,0,0,0,0,0,0,0,0,0,3.4681,3.4649,3.4601,3.4602,3.4635,3.4726,3.4727,3.4767,3.4774,3.4793,0,3.481,0,3.4826,3.4846,3.4846,0,0,0,3.4636,3.4643,3.4671,3.4602,3.4635,3.4726,3.4685,3.4771,3.4779,3.4803,3.4811,3.4816,3.4828,3.4847,3.4847,3.4953,3.4953,0,0,3.4631,3.4615,3.4666,3.4677,3.4663,3.4682,3.4688,3.4776,3.4784,3.4812,3.4818,3.483,3.4847,3.4848,3.4952,3.4953,0,0,0,3.4615,3.4611,3.4638,3.4672,3.4689,3.4685,3.4691,3.478,3.479,3.482,3.4831,3.4848,3.4849,3.4952,3.4953,3.4958,0,0,0,3.4612,3.4602,3.4635,3.4626,3.4687,3.4736,3.4693,3.4784,3.4794,3.4831,3.4848,3.485,3.4952,3.4952,3.4957,3.4963,0,0,0,3.4596,3.46,3.4612,3.4625,3.4665,3.4735,3.475,3.4787,3.4801,3.4846,3.4851,3.4951,3.4952,3.4956,3.4962,3.4989,0,0,0,3.4574,3.4613,3.4612,3.4661,3.4664,3.4737,3.475,3.4805,3.4844,3.4848,3.4952,3.4953,3.4956,3.4961,3.4987,3.501,3.5017,0,0,3.4615,3.4618,3.4648,3.4649,3.472,3.4724,3.4795,3.4845,3.4863,3.4922,3.4925,3.4957,3.4962,3.4988,3.506,3.5065,0,0,0,3.4656,3.4677,3.4699,3.4737,3.4777,3.4813,3.4854,3.4873,3.4924,3.489,3.4974,3.4977,3.4993,3.5004,3.5009,3.5025,3.4957,3.4957,3.4956,3.4691,3.4714,3.4766,3.4801,3.4837,3.4881,3.4912,3.4945,3.4955,3.4975,3.4993,3.5033,3.5046,3.505,3.5066,3.5005,3.5005,3.5005,3.5005,3.4755,3.4791,3.4806,3.4863,3.4887,3.4934,3.4978,3.4984,3.5032,3.5021,3.5036,3.5024,3.5055,3.5071,3.5005,3.5005,3.5005,3.5005,3.5005,3.4782,3.4804,3.4827,3.4886,3.4929,3.4962,3.5008,3.5027,3.5045,3.506,3.5083,3.5083,3.5087,3.5069,3.507,3.507,3.507,3.507,3.507,3.4802,3.4829,3.4866,3.4914,3.4943,3.4982,3.5027,3.5055,3.5091,3.5101,3.5102,3.5112,3.5054,3.504,3.5072,3.5072,3.5072,3.5071,3.5071,3.4862,3.4852,3.491,3.4939,3.4998,3.5041,3.5065,3.512,3.5146,3.5169,3.5176,3.5129,3.5133,3.5129,3.5118,3.5169,3.5169,3.5169,3.5169,3.4887,3.4891,3.4956,3.5001,3.5047,3.5075,3.5141,3.5177,3.5212,3.523,3.5225,3.5211,3.5206,3.5213,3.5208,3.5198,3.5268,3.5268,3.5268,3.4926,3.4936,3.4989,3.5025,3.5073,3.5114,3.5178,3.5228,3.5266,3.5273,3.5245,3.5241,3.5219,3.521,3.5217,3.5208,3.519,0,0]}]]